sat.trackr.live / text

‹ back to catalog

STARLINK-33933

NORAD 63784 · 2025-091K

PAYLOAD ACTIVE UNKNOWN

§ Identity

Operator
Country
US
Launch date
2025-05-02
Launch site
AFETR
Launch vehicle
Mass (kg)
RCS (m²)

Purposes: comms

External: N2YO · Heavens-Above · Gunter

§ Orbital elements

Epoch: 2026-05-24T22:34:41.088576Z

Period
94.27 min
Inclination
43.0004°
Eccentricity
0.0001460
Mean motion
15.27589274 rev/d
Perigee alt
482.0 km
Apogee alt
484.0 km
Semi-major
6,861.2 km
B*
5.5012e-4
RAAN
334.9640°
Arg perigee
264.9728°
Mean anomaly
95.0957°
Rev number
6,075

§ Raw data

STARLINK-339331 63784U 25091K   26144.94075334  .00014911  00000+0  55012-3 0  99982 63784  43.0004 334.9640 0001460 264.9728  95.0957 15.27589274 60752

JSON: /api/v1/satellites/63784 · /tle

For live sub-satellite position, see the globe view (requires WebGL).

§ Visibility from observer

Set your observer location to see the next 7 days of passes ≥ 10°. The values pass through the URL so the page stays shareable.

No JS? Fill the form by hand. The geolocation button needs JavaScript.